Time,TemperatureF,DewpointF,PressureIn,WindDirection,WindDirectionDegrees,WindSpeedMPH,WindSpeedGustMPH,Humidity,HourlyPrecipIn,Conditions,Clouds,dailyrainin,SolarRadiationWatts/m^2,SoftwareType,DateUTC
2013-01-10 00:06:00,58.4,57.0,30.39,East,96,0.0,0.0,95,0.00,,,0.00,0,Wunderground v.1.15,2013-01-10 05:06:00,
2013-01-10 00:09:00,58.3,57.2,30.39,East,96,0.0,0.0,96,0.00,,,0.00,0,Wunderground v.1.15,2013-01-10 05:09:00,
2013-01-10 00:10:00,58.3,57.2,30.39,East,96,0.0,0.0,96,0.00,,,0.00,0,Wunderground v.1.15,2013-01-10 05:10:00,
2013-01-10 00:16:00,58.1,57.0,30.40,East,96,0.0,0.0,96,0.00,,,0.00,0,Wunderground v.1.15,2013-01-10 05:16:00,
2013-01-10 00:21:00,57.9,56.8,30.39,East,96,0.0,0.0,96,0.00,,,0.00,0,Wunderground v.1.15,2013-01-10 05:21:00,
2013-01-10 00:27:00,57.8,56.7,30.40,East,96,0.0,0.0,96,0.00,,,0.00,0,Wunderground v.1.15,2013-01-10 05:27:00,
2013-01-10 00:32:00,57.8,56.7,30.40,East,96,0.0,1.0,96,0.00,,,0.00,0,Wunderground v.1.15,2013-01-10 05:32:00,
2013-01-10 00:38:00,57.8,56.7,30.40,East,96,0.0,1.0,96,0.00,,,0.00,0,Wunderground v.1.15,2013-01-10 05:38:00,
2013-01-10 00:43:00,57.9,57.1,30.40,East,96,0.0,0.0,97,0.00,,,0.00,0,Wunderground v.1.15,2013-01-10 05:43:00,
2013-01-10 00:49:00,58.0,56.9,30.40,East,96,0.0,0.0,96,0.00,,,0.00,0,Wunderground v.1.15,2013-01-10 05:49:00,
2013-01-10 00:54:00,58.0,56.9,30.40,East,96,0.0,0.0,96,0.00,,,0.00,0,Wunderground v.1.15,2013-01-10 05:54:00,
2013-01-10 01:06:00,57.6,56.5,30.40,East,96,0.0,0.0,96,0.00,,,0.00,0,Wunderground v.1.15,2013-01-10 06:06:00,
2013-01-10 01:12:00,57.5,56.7,30.40,East,96,0.0,0.0,97,0.00,,,0.00,0,Wunderground v.1.15,2013-01-10 06:12:00,
2013-01-10 01:17:00,57.5,56.7,30.40,East,96,0.0,0.0,97,0.00,,,0.00,0,Wunderground v.1.15,2013-01-10 06:17:00,
2013-01-10 01:23:00,57.6,56.8,30.40,East,96,1.0,2.0,97,0.00,,,0.00,0,Wunderground v.1.15,2013-01-10 06:23:00,
2013-01-10 01:30:00,57.8,57.0,30.40,East,96,0.0,1.0,97,0.00,,,0.00,0,Wunderground v.1.15,2013-01-10 06:30:00,
2013-01-10 01:35:00,57.8,57.0,30.40,East,96,0.0,1.0,97,0.00,,,0.00,0,Wunderground v.1.15,2013-01-10 06:35:00,
2013-01-10 01:40:00,57.8,57.0,30.40,East,96,0.0,1.0,97,0.00,,,0.00,0,Wunderground v.1.15,2013-01-10 06:40:00,
2013-01-10 01:45:00,57.7,56.9,30.40,East,96,0.0,1.0,97,0.00,,,0.00,0,Wunderground v.1.15,2013-01-10 06:45:00,
2013-01-10 01:51:00,57.6,56.8,30.40,East,96,0.0,0.0,97,0.00,,,0.00,0,Wunderground v.1.15,2013-01-10 06:51:00,
2013-01-10 01:57:00,57.5,56.7,30.40,East,96,0.0,0.0,97,0.00,,,0.00,0,Wunderground v.1.15,2013-01-10 06:57:00,
2013-01-10 02:06:00,57.4,56.6,30.40,East,96,0.0,0.0,97,0.00,,,0.00,0,Wunderground v.1.15,2013-01-10 07:06:00,
2013-01-10 02:11:00,57.3,56.5,30.40,East,96,0.0,0.0,97,0.00,,,0.00,0,Wunderground v.1.15,2013-01-10 07:11:00,
2013-01-10 02:16:00,57.2,56.4,30.40,East,96,0.0,0.0,97,0.00,,,0.00,0,Wunderground v.1.15,2013-01-10 07:16:00,
2013-01-10 02:21:00,57.2,56.4,30.40,East,96,0.0,1.0,97,0.00,,,0.00,0,Wunderground v.1.15,2013-01-10 07:21:00,
2013-01-10 02:26:00,57.2,56.4,30.41,East,96,0.0,1.0,97,0.00,,,0.00,0,Wunderground v.1.15,2013-01-10 07:26:00,
2013-01-10 02:31:00,57.2,56.4,30.41,East,96,1.0,1.0,97,0.00,,,0.01,0,Wunderground v.1.15,2013-01-10 07:31:00,
2013-01-10 02:37:00,57.3,56.5,30.40,East,96,0.0,0.0,97,0.00,,,0.01,0,Wunderground v.1.15,2013-01-10 07:37:00,
2013-01-10 02:42:00,57.3,56.5,30.41,East,96,1.0,1.0,97,0.00,,,0.01,0,Wunderground v.1.15,2013-01-10 07:42:00,
2013-01-10 02:47:00,57.4,56.6,30.41,East,96,0.0,1.0,97,0.00,,,0.01,0,Wunderground v.1.15,2013-01-10 07:47:00,
2013-01-10 02:52:00,57.4,56.6,30.41,East,96,0.0,2.0,97,0.00,,,0.01,0,Wunderground v.1.15,2013-01-10 07:52:00,
2013-01-10 02:57:00,57.5,56.7,30.41,SSE,150,1.0,3.0,97,0.00,,,0.01,0,Wunderground v.1.15,2013-01-10 07:57:00,
2013-01-10 03:06:00,57.5,56.7,30.41,SSE,155,2.0,2.0,97,0.00,,,0.01,0,Wunderground v.1.15,2013-01-10 08:06:00,
2013-01-10 03:11:00,57.5,56.7,30.41,SSE,155,1.0,1.0,97,0.00,,,0.01,0,Wunderground v.1.15,2013-01-10 08:11:00,
2013-01-10 03:16:00,57.4,56.6,30.41,SSE,152,0.0,2.0,97,0.00,,,0.01,0,Wunderground v.1.15,2013-01-10 08:16:00,
2013-01-10 03:21:00,57.4,56.6,30.41,South,173,0.0,1.0,97,0.00,,,0.01,0,Wunderground v.1.15,2013-01-10 08:21:00,
2013-01-10 03:26:00,57.4,56.6,30.41,South,173,2.0,2.0,97,0.00,,,0.01,0,Wunderground v.1.15,2013-01-10 08:26:00,
2013-01-10 03:31:00,57.5,56.7,30.41,SE,144,1.0,3.0,97,0.00,,,0.01,0,Wunderground v.1.15,2013-01-10 08:31:00,
2013-01-10 03:36:00,57.5,56.7,30.41,South,169,0.0,3.0,97,0.00,,,0.01,0,Wunderground v.1.15,2013-01-10 08:36:00,
2013-01-10 03:41:00,57.4,56.6,30.41,South,169,0.0,2.0,97,0.00,,,0.01,0,Wunderground v.1.15,2013-01-10 08:41:00,
2013-01-10 03:46:00,57.5,56.7,30.41,South,169,0.0,2.0,97,0.00,,,0.01,0,Wunderground v.1.15,2013-01-10 08:46:00,
2013-01-10 03:51:00,57.5,56.7,30.41,South,169,0.0,2.0,97,0.00,,,0.01,0,Wunderground v.1.15,2013-01-10 08:51:00,
2013-01-10 03:56:00,57.5,56.7,30.40,South,169,1.0,3.0,97,0.00,,,0.01,0,Wunderground v.1.15,2013-01-10 08:56:00,
2013-01-10 04:06:00,57.6,56.8,30.40,South,169,0.0,1.0,97,0.00,,,0.01,0,Wunderground v.1.15,2013-01-10 09:06:00,
2013-01-10 04:11:00,57.7,57.1,30.40,South,169,0.0,1.0,98,0.00,,,0.01,0,Wunderground v.1.15,2013-01-10 09:11:00,
2013-01-10 04:16:00,57.7,57.1,30.40,South,169,0.0,2.0,98,0.00,,,0.01,0,Wunderground v.1.15,2013-01-10 09:16:00,
2013-01-10 04:21:00,57.7,57.1,30.40,SSE,157,0.0,1.0,98,0.00,,,0.01,0,Wunderground v.1.15,2013-01-10 09:21:00,
2013-01-10 04:26:00,57.8,57.2,30.40,SSE,157,0.0,2.0,98,0.00,,,0.01,0,Wunderground v.1.15,2013-01-10 09:26:00,
2013-01-10 04:31:00,57.8,57.2,30.40,SSE,157,0.0,1.0,98,0.00,,,0.01,0,Wunderground v.1.15,2013-01-10 09:31:00,
2013-01-10 04:36:00,57.8,57.2,30.40,SSE,157,0.0,2.0,98,0.00,,,0.01,0,Wunderground v.1.15,2013-01-10 09:36:00,
2013-01-10 04:42:00,57.8,57.2,30.40,SSE,157,0.0,2.0,98,0.00,,,0.01,0,Wunderground v.1.15,2013-01-10 09:42:00,
2013-01-10 04:47:00,57.7,57.1,30.40,SSE,157,0.0,2.0,98,0.00,,,0.01,0,Wunderground v.1.15,2013-01-10 09:47:00,
2013-01-10 04:52:00,57.6,57.0,30.40,SSE,157,0.0,0.0,98,0.00,,,0.01,0,Wunderground v.1.15,2013-01-10 09:52:00,
2013-01-10 04:57:00,57.5,56.7,30.40,SSE,157,0.0,0.0,97,0.00,,,0.01,0,Wunderground v.1.15,2013-01-10 09:57:00,
2013-01-10 05:07:00,57.3,56.5,30.40,SSE,157,0.0,0.0,97,0.00,,,0.01,0,Wunderground v.1.15,2013-01-10 10:07:00,
2013-01-10 05:12:00,57.2,56.4,30.40,SSE,157,0.0,0.0,97,0.00,,,0.01,0,Wunderground v.1.15,2013-01-10 10:12:00,
2013-01-10 05:17:00,57.0,56.2,30.40,SSE,157,0.0,0.0,97,0.00,,,0.01,0,Wunderground v.1.15,2013-01-10 10:17:00,
2013-01-10 05:22:00,56.9,56.1,30.40,SSE,157,0.0,0.0,97,0.00,,,0.01,0,Wunderground v.1.15,2013-01-10 10:22:00,
2013-01-10 05:27:00,56.7,55.9,30.41,SSE,157,0.0,0.0,97,0.00,,,0.01,0,Wunderground v.1.15,2013-01-10 10:27:00,
2013-01-10 05:32:00,56.6,55.8,30.40,SSE,157,0.0,0.0,97,0.00,,,0.01,0,Wunderground v.1.15,2013-01-10 10:32:00,
2013-01-10 05:37:00,56.4,55.6,30.40,SSE,157,0.0,0.0,97,0.00,,,0.01,0,Wunderground v.1.15,2013-01-10 10:37:00,
2013-01-10 05:42:00,56.3,55.5,30.40,SSE,157,0.0,0.0,97,0.00,,,0.01,0,Wunderground v.1.15,2013-01-10 10:42:00,
2013-01-10 05:47:00,56.2,55.4,30.40,SSE,157,0.0,0.0,97,0.00,,,0.01,0,Wunderground v.1.15,2013-01-10 10:47:00,
2013-01-10 05:52:00,56.1,55.3,30.41,SSE,157,0.0,0.0,97,0.00,,,0.01,0,Wunderground v.1.15,2013-01-10 10:52:00,
2013-01-10 05:57:00,56.0,55.2,30.42,SSE,157,0.0,0.0,97,0.00,,,0.01,0,Wunderground v.1.15,2013-01-10 10:57:00,
2013-01-10 06:07:00,55.7,54.9,30.42,SSE,157,0.0,0.0,97,0.00,,,0.01,0,Wunderground v.1.15,2013-01-10 11:07:00,
2013-01-10 06:12:00,55.6,54.8,30.41,SSE,157,0.0,0.0,97,0.00,,,0.01,0,Wunderground v.1.15,2013-01-10 11:12:00,
2013-01-10 06:17:00,55.5,54.7,30.42,SSE,157,0.0,0.0,97,0.00,,,0.01,0,Wunderground v.1.15,2013-01-10 11:17:00,
2013-01-10 06:22:00,55.5,54.7,30.41,SSE,157,0.0,0.0,97,0.00,,,0.01,0,Wunderground v.1.15,2013-01-10 11:22:00,
2013-01-10 06:27:00,55.6,54.8,30.42,SSE,157,0.0,2.0,97,0.00,,,0.01,0,Wunderground v.1.15,2013-01-10 11:27:00,
2013-01-10 06:32:00,55.6,54.8,30.42,SSE,157,0.0,0.0,97,0.00,,,0.01,0,Wunderground v.1.15,2013-01-10 11:32:00,
2013-01-10 06:37:00,55.5,54.7,30.42,SSE,157,0.0,0.0,97,0.00,,,0.01,0,Wunderground v.1.15,2013-01-10 11:37:00,
2013-01-10 06:43:00,55.4,54.6,30.42,SSE,157,0.0,0.0,97,0.00,,,0.01,0,Wunderground v.1.15,2013-01-10 11:43:00,
2013-01-10 06:48:00,55.4,54.6,30.42,SSE,157,0.0,0.0,97,0.00,,,0.01,0,Wunderground v.1.15,2013-01-10 11:48:00,
2013-01-10 06:53:00,55.3,54.5,30.43,SSE,157,0.0,0.0,97,0.00,,,0.01,0,Wunderground v.1.15,2013-01-10 11:53:00,
2013-01-10 06:58:00,55.2,54.4,30.43,SSE,157,0.0,0.0,97,0.00,,,0.01,0,Wunderground v.1.15,2013-01-10 11:58:00,
2013-01-10 07:06:00,55.0,54.2,30.44,SSE,157,0.0,0.0,97,0.00,,,0.01,0,Wunderground v.1.15,2013-01-10 12:06:00,
2013-01-10 07:11:00,54.9,54.1,30.44,SSE,157,0.0,1.0,97,0.00,,,0.01,0,Wunderground v.1.15,2013-01-10 12:11:00,
2013-01-10 07:17:00,54.9,54.1,30.44,SSE,157,0.0,1.0,97,0.00,,,0.01,0,Wunderground v.1.15,2013-01-10 12:17:00,
2013-01-10 07:22:00,54.8,54.0,30.44,SSE,157,1.0,1.0,97,0.00,,,0.01,0,Wunderground v.1.15,2013-01-10 12:22:00,
2013-01-10 07:27:00,54.8,54.0,30.44,SSE,157,0.0,1.0,97,0.00,,,0.01,0,Wunderground v.1.15,2013-01-10 12:27:00,
2013-01-10 07:32:00,54.7,53.9,30.44,SSE,157,0.0,0.0,97,0.00,,,0.01,7,Wunderground v.1.15,2013-01-10 12:32:00,
2013-01-10 07:37:00,54.6,53.8,30.44,SSE,157,0.0,1.0,97,0.00,,,0.01,11,Wunderground v.1.15,2013-01-10 12:37:00,
2013-01-10 07:42:00,54.8,54.2,30.45,SSE,157,0.0,1.0,98,0.00,,,0.01,14,Wunderground v.1.15,2013-01-10 12:42:00,
2013-01-10 07:47:00,54.9,54.3,30.44,SSE,157,0.0,1.0,98,0.00,,,0.01,19,Wunderground v.1.15,2013-01-10 12:47:00,
2013-01-10 07:52:00,55.0,54.4,30.45,SSE,157,0.0,1.0,98,0.00,,,0.01,23,Wunderground v.1.15,2013-01-10 12:52:00,
2013-01-10 07:57:00,55.1,54.5,30.45,SSE,157,0.0,2.0,98,0.00,,,0.01,28,Wunderground v.1.15,2013-01-10 12:57:00,
2013-01-10 08:07:00,55.2,54.6,30.45,SSE,157,0.0,1.0,98,0.00,,,0.01,33,Wunderground v.1.15,2013-01-10 13:07:00,
2013-01-10 08:12:00,55.3,54.7,30.45,SSE,157,0.0,2.0,98,0.00,,,0.01,35,Wunderground v.1.15,2013-01-10 13:12:00,
2013-01-10 08:17:00,55.4,54.8,30.45,SSE,158,1.0,2.0,98,0.00,,,0.01,44,Wunderground v.1.15,2013-01-10 13:17:00,
2013-01-10 08:22:00,55.6,55.0,30.46,SSE,152,1.0,2.0,98,0.00,,,0.01,53,Wunderground v.1.15,2013-01-10 13:22:00,
2013-01-10 08:27:00,55.8,55.2,30.46,SSE,159,2.0,4.0,98,0.00,,,0.01,72,Wunderground v.1.15,2013-01-10 13:27:00,
2013-01-10 08:32:00,56.0,55.4,30.46,SSE,159,1.0,3.0,98,0.00,,,0.01,88,Wunderground v.1.15,2013-01-10 13:32:00,
2013-01-10 08:37:00,56.3,55.7,30.46,SSE,161,1.0,3.0,98,0.00,,,0.01,98,Wunderground v.1.15,2013-01-10 13:37:00,
2013-01-10 08:42:00,56.6,56.0,30.46,SSE,161,1.0,2.0,98,0.00,,,0.01,132,Wunderground v.1.15,2013-01-10 13:42:00,
2013-01-10 08:48:00,57.0,56.4,30.46,East,88,1.0,5.0,98,0.00,,,0.01,121,Wunderground v.1.15,2013-01-10 13:48:00,
2013-01-10 08:53:00,57.3,56.7,30.45,SE,132,1.0,4.0,98,0.00,,,0.01,91,Wunderground v.1.15,2013-01-10 13:53:00,
2013-01-10 08:58:00,57.5,56.9,30.45,South,182,1.0,5.0,98,0.00,,,0.01,88,Wunderground v.1.15,2013-01-10 13:58:00,
2013-01-10 09:06:00,57.8,57.2,30.45,South,169,1.0,2.0,98,0.00,,,0.01,93,Wunderground v.1.15,2013-01-10 14:06:00,
2013-01-10 09:11:00,58.0,57.4,30.45,SSE,159,5.0,5.0,98,0.00,,,0.01,88,Wunderground v.1.15,2013-01-10 14:11:00,
2013-01-10 09:16:00,58.2,57.4,30.45,South,184,2.0,7.0,97,0.00,,,0.01,130,Wunderground v.1.15,2013-01-10 14:16:00,
2013-01-10 09:21:00,58.4,57.6,30.45,SSE,159,3.0,4.0,97,0.00,,,0.01,142,Wunderground v.1.15,2013-01-10 14:21:00,
2013-01-10 09:26:00,58.4,57.6,30.45,SSE,159,3.0,4.0,97,0.00,,,0.01,142,Wunderground v.1.15,2013-01-10 14:26:00,
2013-01-10 09:31:00,59.0,58.2,30.45,SSE,162,4.0,4.0,97,0.00,,,0.01,107,Wunderground v.1.15,2013-01-10 14:31:00,
2013-01-10 09:36:00,59.2,58.1,30.45,SSE,156,2.0,5.0,96,0.00,,,0.01,151,Wunderground v.1.15,2013-01-10 14:36:00,
2013-01-10 09:41:00,59.5,58.4,30.46,SSE,167,1.0,3.0,96,0.00,,,0.01,251,Wunderground v.1.15,2013-01-10 14:41:00,
2013-01-10 09:47:00,59.9,58.5,30.45,SSE,161,1.0,6.0,95,0.00,,,0.01,236,Wunderground v.1.15,2013-01-10 14:47:00,
2013-01-10 09:52:00,60.3,58.9,30.45,SSE,153,1.0,4.0,95,0.00,,,0.01,299,Wunderground v.1.15,2013-01-10 14:52:00,
2013-01-10 09:57:00,60.8,59.1,30.45,South,170,4.0,6.0,94,0.00,,,0.01,392,Wunderground v.1.15,2013-01-10 14:57:00,
2013-01-10 10:06:00,61.8,59.8,30.45,SSE,157,2.0,4.0,93,0.00,,,0.01,167,Wunderground v.1.15,2013-01-10 15:06:00,
2013-01-10 10:11:00,62.1,59.7,30.45,SSE,157,1.0,2.0,92,0.00,,,0.01,236,Wunderground v.1.15,2013-01-10 15:11:00,
2013-01-10 10:16:00,62.6,59.9,30.44,SSE,168,4.0,4.0,91,0.00,,,0.01,258,Wunderground v.1.15,2013-01-10 15:16:00,
2013-01-10 10:21:00,63.1,60.1,30.44,South,173,1.0,6.0,90,0.00,,,0.01,241,Wunderground v.1.15,2013-01-10 15:21:00,
2013-01-10 10:26:00,63.6,60.6,30.44,SSE,164,2.0,6.0,90,0.00,,,0.01,197,Wunderground v.1.15,2013-01-10 15:26:00,
2013-01-10 10:31:00,64.0,60.7,30.44,SSW,193,2.0,4.0,89,0.00,,,0.01,171,Wunderground v.1.15,2013-01-10 15:31:00,
2013-01-10 10:36:00,64.5,60.9,30.44,South,188,2.0,4.0,88,0.00,,,0.01,230,Wunderground v.1.15,2013-01-10 15:36:00,
2013-01-10 10:41:00,65.2,60.9,30.44,SE,142,4.0,5.0,86,0.00,,,0.01,311,Wunderground v.1.15,2013-01-10 15:41:00,
2013-01-10 10:46:00,65.9,61.3,30.44,South,181,2.0,5.0,85,0.00,,,0.01,301,Wunderground v.1.15,2013-01-10 15:46:00,
2013-01-10 10:51:00,66.7,61.4,30.44,South,176,2.0,3.0,83,0.00,,,0.01,216,Wunderground v.1.15,2013-01-10 15:51:00,
2013-01-10 10:56:00,67.2,61.2,30.43,South,180,3.0,5.0,81,0.00,,,0.01,211,Wunderground v.1.15,2013-01-10 15:56:00,
2013-01-10 11:06:00,67.8,60.7,30.43,South,169,5.0,5.0,78,0.00,,,0.01,325,Wunderground v.1.15,2013-01-10 16:06:00,
2013-01-10 11:11:00,68.1,61.0,30.43,SW,226,2.0,9.0,78,0.00,,,0.01,454,Wunderground v.1.15,2013-01-10 16:11:00,
2013-01-10 11:16:00,68.3,60.8,30.42,SE,137,2.0,12.0,77,0.00,,,0.01,355,Wunderground v.1.15,2013-01-10 16:16:00,
2013-01-10 11:21:00,68.2,60.7,30.42,South,186,3.0,13.0,77,0.00,,,0.01,269,Wunderground v.1.15,2013-01-10 16:21:00,
2013-01-10 11:26:00,68.1,60.6,30.42,SSE,167,2.0,13.0,77,0.00,,,0.01,322,Wunderground v.1.15,2013-01-10 16:26:00,
2013-01-10 11:31:00,67.9,60.1,30.42,South,186,3.0,9.0,76,0.00,,,0.01,299,Wunderground v.1.15,2013-01-10 16:31:00,
2013-01-10 11:36:00,67.5,59.7,30.42,SSW,194,4.0,9.0,76,0.00,,,0.01,346,Wunderground v.1.15,2013-01-10 16:36:00,
2013-01-10 11:41:00,67.3,59.1,30.41,SSW,205,4.0,9.0,75,0.00,,,0.01,401,Wunderground v.1.15,2013-01-10 16:41:00,
2013-01-10 11:46:00,67.4,59.2,30.41,SW,226,5.0,11.0,75,0.00,,,0.01,545,Wunderground v.1.15,2013-01-10 16:46:00,
2013-01-10 11:51:00,68.1,59.5,30.41,SE,146,4.0,5.0,74,0.00,,,0.01,666,Wunderground v.1.15,2013-01-10 16:51:00,
2013-01-10 11:56:00,68.6,58.8,30.41,SSW,201,4.0,9.0,71,0.00,,,0.01,626,Wunderground v.1.15,2013-01-10 16:56:00,
2013-01-10 12:06:00,68.8,58.6,30.40,SSW,194,3.0,4.0,70,0.00,,,0.01,684,Wunderground v.1.15,2013-01-10 17:06:00,
2013-01-10 12:11:00,68.9,58.3,30.40,SSW,207,7.0,11.0,69,0.00,,,0.01,366,Wunderground v.1.15,2013-01-10 17:11:00,
2013-01-10 12:16:00,68.5,57.9,30.40,SSW,209,7.0,7.0,69,0.00,,,0.01,234,Wunderground v.1.15,2013-01-10 17:16:00,
2013-01-10 12:21:00,68.0,57.4,30.40,SSW,205,7.0,10.0,69,0.00,,,0.01,229,Wunderground v.1.15,2013-01-10 17:21:00,
2013-01-10 12:27:00,67.7,57.6,30.40,South,185,7.0,7.0,70,0.00,,,0.01,232,Wunderground v.1.15,2013-01-10 17:27:00,
2013-01-10 12:32:00,67.6,57.5,30.40,SSW,209,5.0,7.0,70,0.00,,,0.01,192,Wunderground v.1.15,2013-01-10 17:32:00,
2013-01-10 12:37:00,67.3,57.2,30.40,SSE,167,5.0,14.0,70,0.00,,,0.01,265,Wunderground v.1.15,2013-01-10 17:37:00,
2013-01-10 12:42:00,67.1,56.6,30.40,SW,231,6.0,14.0,69,0.00,,,0.01,276,Wunderground v.1.15,2013-01-10 17:42:00,
2013-01-10 12:47:00,67.0,56.9,30.39,SSE,155,5.0,5.0,70,0.00,,,0.01,207,Wunderground v.1.15,2013-01-10 17:47:00,
2013-01-10 12:52:00,67.0,56.5,30.39,SSW,211,4.0,11.0,69,0.00,,,0.01,199,Wunderground v.1.15,2013-01-10 17:52:00,
2013-01-10 12:57:00,66.8,56.3,30.39,South,188,4.0,6.0,69,0.00,,,0.01,188,Wunderground v.1.15,2013-01-10 17:57:00,
2013-01-10 13:07:00,66.9,56.0,30.39,SSW,203,5.0,7.0,68,0.00,,,0.01,274,Wunderground v.1.15,2013-01-10 18:07:00,
2013-01-10 13:12:00,67.0,56.5,30.39,SW,225,5.0,8.0,69,0.00,,,0.01,264,Wunderground v.1.15,2013-01-10 18:12:00,
2013-01-10 13:17:00,67.1,56.2,30.39,South,187,5.0,10.0,68,0.00,,,0.01,304,Wunderground v.1.15,2013-01-10 18:17:00,
2013-01-10 13:22:00,67.2,56.3,30.39,SSW,213,6.0,8.0,68,0.00,,,0.01,297,Wunderground v.1.15,2013-01-10 18:22:00,
2013-01-10 13:27:00,67.3,56.4,30.39,SSW,204,4.0,8.0,68,0.00,,,0.01,299,Wunderground v.1.15,2013-01-10 18:27:00,
2013-01-10 13:32:00,67.2,55.9,30.39,SSE,165,9.0,13.0,67,0.00,,,0.01,241,Wunderground v.1.15,2013-01-10 18:32:00,
2013-01-10 13:37:00,67.0,55.7,30.38,SSW,205,6.0,13.0,67,0.00,,,0.01,190,Wunderground v.1.15,2013-01-10 18:37:00,
2013-01-10 13:42:00,66.8,55.9,30.39,SSW,212,1.0,7.0,68,0.00,,,0.01,172,Wunderground v.1.15,2013-01-10 18:42:00,
2013-01-10 13:47:00,66.9,56.0,30.39,SSW,201,6.0,10.0,68,0.00,,,0.01,190,Wunderground v.1.15,2013-01-10 18:47:00,
2013-01-10 13:52:00,66.8,55.9,30.39,South,180,3.0,9.0,68,0.00,,,0.01,214,Wunderground v.1.15,2013-01-10 18:52:00,
2013-01-10 13:57:00,66.9,56.0,30.39,SE,146,5.0,11.0,68,0.00,,,0.01,144,Wunderground v.1.15,2013-01-10 18:57:00,
2013-01-10 14:07:00,66.9,56.4,30.39,SSW,192,2.0,4.0,69,0.00,,,0.01,118,Wunderground v.1.15,2013-01-10 19:07:00,
2013-01-10 14:12:00,66.9,56.8,30.39,SE,144,2.0,4.0,70,0.00,,,0.01,104,Wunderground v.1.15,2013-01-10 19:12:00,
2013-01-10 14:17:00,66.4,57.1,30.40,South,182,2.0,6.0,72,0.00,,,0.01,109,Wunderground v.1.15,2013-01-10 19:17:00,
2013-01-10 14:22:00,65.8,56.5,30.40,SE,146,3.0,7.0,72,0.00,,,0.01,134,Wunderground v.1.15,2013-01-10 19:22:00,
2013-01-10 14:27:00,65.7,56.4,30.40,SSW,194,3.0,7.0,72,0.00,,,0.01,149,Wunderground v.1.15,2013-01-10 19:27:00,
2013-01-10 14:32:00,65.9,56.6,30.40,South,181,3.0,7.0,72,0.00,,,0.01,172,Wunderground v.1.15,2013-01-10 19:32:00,
2013-01-10 14:37:00,66.2,56.5,30.39,SE,144,6.0,7.0,71,0.00,,,0.01,134,Wunderground v.1.15,2013-01-10 19:37:00,
2013-01-10 14:42:00,66.5,56.4,30.40,SSE,164,3.0,5.0,70,0.00,,,0.01,211,Wunderground v.1.15,2013-01-10 19:42:00,
2013-01-10 14:47:00,66.8,56.7,30.40,SE,143,1.0,10.0,70,0.00,,,0.01,167,Wunderground v.1.15,2013-01-10 19:47:00,
2013-01-10 14:52:00,66.9,56.4,30.40,SSE,150,3.0,10.0,69,0.00,,,0.01,155,Wunderground v.1.15,2013-01-10 19:52:00,
2013-01-10 14:57:00,66.7,56.2,30.40,South,173,3.0,11.0,69,0.00,,,0.01,134,Wunderground v.1.15,2013-01-10 19:57:00,
2013-01-10 15:07:00,64.5,57.1,30.39,SSW,199,2.0,4.0,77,0.00,,,0.01,88,Wunderground v.1.15,2013-01-10 20:07:00,
2013-01-10 15:12:00,64.1,57.5,30.39,South,189,2.0,4.0,79,0.00,,,0.01,69,Wunderground v.1.15,2013-01-10 20:12:00,
2013-01-10 15:17:00,64.0,57.4,30.40,SSE,160,1.0,11.0,79,0.00,,,0.01,90,Wunderground v.1.15,2013-01-10 20:17:00,
2013-01-10 15:22:00,63.8,57.9,30.40,SE,142,5.0,7.0,81,0.00,,,0.01,98,Wunderground v.1.15,2013-01-10 20:22:00,
2013-01-10 15:27:00,63.4,58.1,30.40,South,177,5.0,7.0,83,0.00,,,0.01,77,Wunderground v.1.15,2013-01-10 20:27:00,
2013-01-10 15:32:00,62.9,58.3,30.40,South,189,2.0,5.0,85,0.00,,,0.01,67,Wunderground v.1.15,2013-01-10 20:32:00,
2013-01-10 15:37:00,62.5,58.6,30.40,South,180,2.0,5.0,87,0.00,,,0.01,88,Wunderground v.1.15,2013-01-10 20:37:00,
2013-01-10 15:42:00,62.2,58.6,30.40,South,172,1.0,6.0,88,0.00,,,0.01,76,Wunderground v.1.15,2013-01-10 20:42:00,
2013-01-10 15:47:00,61.9,58.6,30.40,South,171,3.0,6.0,89,0.00,,,0.01,88,Wunderground v.1.15,2013-01-10 20:47:00,
2013-01-10 15:52:00,61.7,58.7,30.40,South,171,2.0,7.0,90,0.00,,,0.01,63,Wunderground v.1.15,2013-01-10 20:52:00,
2013-01-10 15:57:00,61.7,59.0,30.40,SSE,148,7.0,7.0,91,0.00,,,0.01,54,Wunderground v.1.15,2013-01-10 20:57:00,
2013-01-10 16:02:00,61.6,59.3,30.40,SE,138,4.0,4.0,92,0.00,,,0.01,53,Wunderground v.1.15,2013-01-10 21:02:00,
2013-01-10 16:07:00,61.6,59.3,30.40,South,175,2.0,8.0,92,0.00,,,0.01,33,Wunderground v.1.15,2013-01-10 21:07:00,
2013-01-10 16:12:00,61.5,59.2,30.40,South,177,0.0,3.0,92,0.00,,,0.02,30,Wunderground v.1.15,2013-01-10 21:12:00,
2013-01-10 16:17:00,61.4,59.4,30.40,South,179,5.0,7.0,93,0.00,,,0.02,47,Wunderground v.1.15,2013-01-10 21:17:00,
2013-01-10 16:22:00,61.3,59.6,30.40,ESE,103,9.0,9.0,94,0.21,,,0.04,44,Wunderground v.1.15,2013-01-10 21:22:00,
2013-01-10 16:27:00,61.3,59.6,30.39,SE,142,2.0,9.0,94,0.20,,,0.05,44,Wunderground v.1.15,2013-01-10 21:27:00,
2013-01-10 16:32:00,61.2,59.5,30.40,SSW,195,3.0,8.0,94,0.12,,,0.06,21,Wunderground v.1.15,2013-01-10 21:32:00,
2013-01-10 16:37:00,61.2,59.8,30.40,SSE,155,2.0,8.0,95,0.06,,,0.06,16,Wunderground v.1.15,2013-01-10 21:37:00,
2013-01-10 16:42:00,61.2,59.8,30.39,South,178,2.0,4.0,95,0.04,,,0.07,21,Wunderground v.1.15,2013-01-10 21:42:00,
2013-01-10 16:47:00,61.2,59.8,30.39,SSE,154,3.0,7.0,95,0.04,,,0.07,18,Wunderground v.1.15,2013-01-10 21:47:00,
2013-01-10 16:52:00,61.2,60.1,30.39,SSE,155,1.0,3.0,96,0.04,,,0.07,16,Wunderground v.1.15,2013-01-10 21:52:00,
2013-01-10 16:57:00,61.3,60.2,30.38,South,173,0.0,5.0,96,0.04,,,0.07,12,Wunderground v.1.15,2013-01-10 21:57:00,
2013-01-10 17:07:00,61.4,60.2,30.38,SSE,150,2.0,3.0,96,0.00,,,0.07,5,Wunderground v.1.15,2013-01-10 22:07:00,
2013-01-10 17:12:00,61.5,60.3,30.38,South,184,4.0,5.0,96,0.00,,,0.07,5,Wunderground v.1.15,2013-01-10 22:12:00,
2013-01-10 17:17:00,61.6,60.4,30.38,SSE,167,2.0,5.0,96,0.00,,,0.07,0,Wunderground v.1.15,2013-01-10 22:17:00,
2013-01-10 17:22:00,61.6,60.4,30.38,South,187,2.0,5.0,96,0.00,,,0.07,0,Wunderground v.1.15,2013-01-10 22:22:00,
2013-01-10 17:27:00,61.7,60.5,30.39,SSE,153,3.0,6.0,96,0.00,,,0.07,0,Wunderground v.1.15,2013-01-10 22:27:00,
2013-01-10 17:32:00,61.8,60.6,30.38,SSW,196,3.0,8.0,96,0.00,,,0.07,0,Wunderground v.1.15,2013-01-10 22:32:00,
2013-01-10 17:37:00,61.9,60.7,30.38,South,188,2.0,8.0,96,0.00,,,0.07,0,Wunderground v.1.15,2013-01-10 22:37:00,
2013-01-10 17:42:00,62.0,60.8,30.37,South,175,1.0,7.0,96,0.00,,,0.07,0,Wunderground v.1.15,2013-01-10 22:42:00,
2013-01-10 17:47:00,62.0,60.8,30.38,South,169,1.0,7.0,96,0.00,,,0.07,0,Wunderground v.1.15,2013-01-10 22:47:00,
2013-01-10 17:53:00,62.1,60.9,30.38,South,186,4.0,5.0,96,0.00,,,0.07,0,Wunderground v.1.15,2013-01-10 22:53:00,
2013-01-10 17:58:00,62.2,61.0,30.38,SE,139,2.0,5.0,96,0.00,,,0.07,0,Wunderground v.1.15,2013-01-10 22:58:00,
2013-01-10 18:07:00,62.3,61.1,30.38,South,184,6.0,6.0,96,0.00,,,0.07,0,Wunderground v.1.15,2013-01-10 23:07:00,
2013-01-10 18:12:00,62.2,61.0,30.38,South,175,3.0,5.0,96,0.00,,,0.07,0,Wunderground v.1.15,2013-01-10 23:12:00,
2013-01-10 18:17:00,62.2,61.0,30.38,SSE,148,3.0,8.0,96,0.00,,,0.07,0,Wunderground v.1.15,2013-01-10 23:17:00,
2013-01-10 18:22:00,62.2,61.0,30.39,SSE,160,6.0,7.0,96,0.00,,,0.07,0,Wunderground v.1.15,2013-01-10 23:22:00,
2013-01-10 18:27:00,62.3,61.1,30.39,SSW,197,4.0,7.0,96,0.00,,,0.07,0,Wunderground v.1.15,2013-01-10 23:27:00,
2013-01-10 18:32:00,62.2,61.0,30.39,South,172,1.0,7.0,96,0.00,,,0.07,0,Wunderground v.1.15,2013-01-10 23:32:00,
2013-01-10 18:37:00,62.0,60.8,30.39,SSW,196,3.0,10.0,96,0.00,,,0.07,0,Wunderground v.1.15,2013-01-10 23:37:00,
2013-01-10 18:42:00,61.9,60.7,30.39,South,186,2.0,11.0,96,0.00,,,0.08,0,Wunderground v.1.15,2013-01-10 23:42:00,
2013-01-10 18:47:00,61.8,60.6,30.39,South,172,0.0,11.0,96,0.00,,,0.08,0,Wunderground v.1.15,2013-01-10 23:47:00,
2013-01-10 18:52:00,61.7,60.5,30.39,South,175,4.0,4.0,96,0.00,,,0.08,0,Wunderground v.1.15,2013-01-10 23:52:00,
2013-01-10 18:58:00,61.5,60.1,30.39,South,175,0.0,4.0,95,0.00,,,0.08,0,Wunderground v.1.15,2013-01-10 23:58:00,
2013-01-10 19:06:00,61.2,59.8,30.40,SE,133,3.0,3.0,95,0.00,,,0.08,0,Wunderground v.1.15,2013-01-11 00:06:00,
2013-01-10 19:11:00,60.9,59.5,30.40,South,190,1.0,5.0,95,0.00,,,0.08,0,Wunderground v.1.15,2013-01-11 00:11:00,
2013-01-10 19:16:00,60.7,59.0,30.40,SE,135,3.0,5.0,94,0.00,,,0.08,0,Wunderground v.1.15,2013-01-11 00:16:00,
2013-01-10 19:21:00,60.3,58.6,30.40,SW,220,3.0,8.0,94,0.00,,,0.08,0,Wunderground v.1.15,2013-01-11 00:21:00,
2013-01-10 19:26:00,60.0,58.3,30.40,SSW,203,5.0,10.0,94,0.00,,,0.08,0,Wunderground v.1.15,2013-01-11 00:26:00,
2013-01-10 19:31:00,59.9,58.2,30.40,South,189,2.0,8.0,94,0.00,,,0.08,0,Wunderground v.1.15,2013-01-11 00:31:00,
2013-01-10 19:36:00,59.5,57.8,30.40,South,186,3.0,10.0,94,0.00,,,0.08,0,Wunderground v.1.15,2013-01-11 00:36:00,
2013-01-10 19:41:00,59.3,57.6,30.40,South,172,2.0,9.0,94,0.00,,,0.08,0,Wunderground v.1.15,2013-01-11 00:41:00,
2013-01-10 19:46:00,59.2,57.5,30.40,SSE,155,0.0,9.0,94,0.00,,,0.08,0,Wunderground v.1.15,2013-01-11 00:46:00,
2013-01-10 19:51:00,59.1,57.4,30.40,SSE,165,1.0,4.0,94,0.00,,,0.08,0,Wunderground v.1.15,2013-01-11 00:51:00,
2013-01-10 19:56:00,59.0,57.3,30.40,South,179,3.0,7.0,94,0.00,,,0.08,0,Wunderground v.1.15,2013-01-11 00:56:00,
2013-01-10 20:06:00,58.8,57.1,30.40,SSE,167,1.0,3.0,94,0.00,,,0.08,0,Wunderground v.1.15,2013-01-11 01:06:00,
2013-01-10 20:11:00,58.7,57.0,30.40,South,178,4.0,9.0,94,0.00,,,0.08,0,Wunderground v.1.15,2013-01-11 01:11:00,
2013-01-10 20:16:00,58.4,56.4,30.40,SSE,155,2.0,5.0,93,0.00,,,0.08,0,Wunderground v.1.15,2013-01-11 01:16:00,
2013-01-10 20:21:00,58.3,56.3,30.40,SSW,200,2.0,6.0,93,0.00,,,0.08,0,Wunderground v.1.15,2013-01-11 01:21:00,
2013-01-10 20:26:00,58.1,56.1,30.40,SSE,163,5.0,5.0,93,0.00,,,0.08,0,Wunderground v.1.15,2013-01-11 01:26:00,
2013-01-10 20:31:00,57.9,55.9,30.40,ESE,123,5.0,8.0,93,0.00,,,0.08,0,Wunderground v.1.15,2013-01-11 01:31:00,
2013-01-10 20:36:00,57.7,55.7,30.40,SSW,196,1.0,4.0,93,0.00,,,0.08,0,Wunderground v.1.15,2013-01-11 01:36:00,
2013-01-10 20:41:00,57.6,55.6,30.40,South,182,5.0,10.0,93,0.00,,,0.08,0,Wunderground v.1.15,2013-01-11 01:41:00,
2013-01-10 20:46:00,57.6,55.6,30.40,SSW,201,4.0,6.0,93,0.00,,,0.08,0,Wunderground v.1.15,2013-01-11 01:46:00,
2013-01-10 20:51:00,57.5,55.5,30.40,South,177,3.0,9.0,93,0.00,,,0.08,0,Wunderground v.1.15,2013-01-11 01:51:00,
2013-01-10 20:56:00,57.4,55.4,30.40,SSW,200,2.0,5.0,93,0.00,,,0.08,0,Wunderground v.1.15,2013-01-11 01:56:00,
2013-01-10 21:07:00,57.3,55.3,30.40,South,169,0.0,3.0,93,0.00,,,0.08,0,Wunderground v.1.15,2013-01-11 02:07:00,
2013-01-10 21:12:00,57.3,55.6,30.40,SSE,153,4.0,4.0,94,0.00,,,0.08,0,Wunderground v.1.15,2013-01-11 02:12:00,
2013-01-10 21:17:00,57.2,55.5,30.40,South,189,2.0,10.0,94,0.00,,,0.08,0,Wunderground v.1.15,2013-01-11 02:17:00,
2013-01-10 21:22:00,57.2,55.5,30.39,South,175,2.0,8.0,94,0.00,,,0.08,0,Wunderground v.1.15,2013-01-11 02:22:00,
2013-01-10 21:27:00,57.2,55.5,30.39,SSE,147,3.0,8.0,94,0.00,,,0.08,0,Wunderground v.1.15,2013-01-11 02:27:00,
2013-01-10 21:32:00,57.2,55.5,30.39,SSW,192,4.0,5.0,94,0.00,,,0.08,0,Wunderground v.1.15,2013-01-11 02:32:00,
2013-01-10 21:37:00,57.2,55.5,30.39,South,187,2.0,5.0,94,0.00,,,0.08,0,Wunderground v.1.15,2013-01-11 02:37:00,
2013-01-10 21:42:00,57.2,55.5,30.38,SW,221,2.0,4.0,94,0.00,,,0.08,0,Wunderground v.1.15,2013-01-11 02:42:00,
2013-01-10 21:47:00,57.3,55.6,30.38,SSW,208,2.0,4.0,94,0.00,,,0.08,0,Wunderground v.1.15,2013-01-11 02:47:00,
2013-01-10 21:52:00,57.3,55.6,30.38,SW,236,3.0,6.0,94,0.00,,,0.08,0,Wunderground v.1.15,2013-01-11 02:52:00,
2013-01-10 21:57:00,57.4,55.7,30.38,SSW,208,1.0,6.0,94,0.00,,,0.08,0,Wunderground v.1.15,2013-01-11 02:57:00,
2013-01-10 22:07:00,57.5,55.8,30.38,SSW,201,2.0,2.0,94,0.00,,,0.08,0,Wunderground v.1.15,2013-01-11 03:07:00,
2013-01-10 22:12:00,57.5,55.8,30.38,SSE,163,0.0,4.0,94,0.00,,,0.08,0,Wunderground v.1.15,2013-01-11 03:12:00,
2013-01-10 22:17:00,57.5,56.1,30.37,South,187,3.0,6.0,95,0.00,,,0.08,0,Wunderground v.1.15,2013-01-11 03:17:00,
2013-01-10 22:22:00,57.5,56.1,30.37,SSE,167,2.0,4.0,95,0.00,,,0.08,0,Wunderground v.1.15,2013-01-11 03:22:00,
2013-01-10 22:27:00,57.6,56.2,30.37,SSE,152,2.0,8.0,95,0.00,,,0.08,0,Wunderground v.1.15,2013-01-11 03:27:00,
2013-01-10 22:32:00,57.6,56.2,30.37,SSE,168,5.0,5.0,95,0.00,,,0.08,0,Wunderground v.1.15,2013-01-11 03:32:00,
2013-01-10 22:37:00,57.6,56.2,30.37,SSW,195,2.0,6.0,95,0.00,,,0.08,0,Wunderground v.1.15,2013-01-11 03:37:00,
2013-01-10 22:42:00,57.6,56.2,30.37,SE,143,4.0,5.0,95,0.00,,,0.08,0,Wunderground v.1.15,2013-01-11 03:42:00,
2013-01-10 22:47:00,57.6,56.2,30.37,South,188,2.0,5.0,95,0.00,,,0.08,0,Wunderground v.1.15,2013-01-11 03:47:00,
2013-01-10 22:53:00,57.6,56.2,30.37,SSE,166,1.0,3.0,95,0.00,,,0.08,0,Wunderground v.1.15,2013-01-11 03:53:00,
2013-01-10 22:58:00,57.7,56.3,30.37,SSE,163,2.0,4.0,95,0.00,,,0.08,0,Wunderground v.1.15,2013-01-11 03:58:00,
2013-01-10 23:07:00,57.7,56.3,30.37,SSE,153,4.0,4.0,95,0.00,,,0.08,0,Wunderground v.1.15,2013-01-11 04:07:00,
2013-01-10 23:12:00,57.8,56.4,30.37,SSE,153,2.0,3.0,95,0.00,,,0.08,0,Wunderground v.1.15,2013-01-11 04:12:00,
2013-01-10 23:17:00,57.8,56.4,30.37,SSE,161,1.0,4.0,95,0.00,,,0.08,0,Wunderground v.1.15,2013-01-11 04:17:00,
2013-01-10 23:22:00,57.8,56.7,30.38,South,180,0.0,2.0,96,0.00,,,0.08,0,Wunderground v.1.15,2013-01-11 04:22:00,
2013-01-10 23:27:00,57.8,56.7,30.37,South,169,1.0,3.0,96,0.00,,,0.08,0,Wunderground v.1.15,2013-01-11 04:27:00,
2013-01-10 23:32:00,57.8,56.7,30.37,South,169,1.0,3.0,96,0.00,,,0.08,0,Wunderground v.1.15,2013-01-11 04:32:00,
2013-01-10 23:37:00,57.8,56.7,30.37,SSE,166,0.0,4.0,96,0.00,,,0.08,0,Wunderground v.1.15,2013-01-11 04:37:00,
2013-01-10 23:42:00,57.7,56.3,30.37,SSE,148,0.0,1.0,95,0.00,,,0.08,0,Wunderground v.1.15,2013-01-11 04:42:00,
2013-01-10 23:47:00,57.7,56.3,30.37,South,169,1.0,3.0,95,0.00,,,0.08,0,Wunderground v.1.15,2013-01-11 04:47:00,
2013-01-10 23:52:00,57.6,56.5,30.37,SSE,157,1.0,2.0,96,0.00,,,0.08,0,Wunderground v.1.15,2013-01-11 04:52:00,
2013-01-10 23:57:00,57.5,56.4,30.37,SSE,158,1.0,4.0,96,0.00,,,0.08,0,Wunderground v.1.15,2013-01-11 04:57:00,